This demonstration page uses our WeatherBlox Daily Observations layout. Learn more.

Left ArrowRight Arrow

Hourly Observations for February 24, 2018

Temp ( °F °C ) Dew Point ( °F °C ) Humidity (%) Winds ( mph kmh ) Pressure ( in mb ) Visibility ( mi km ) Precip ( " mm )
12:53 am 00:53 Cloudy 20 -6.7 18 -7.8 92 92 E 12 19 30.20 1023 8 13 0.00 0.00
1:23 am 01:23 Cloudy with Mist and Fog 20 -6.7 18 -7.8 92 92 ENE 7 11 30.24 1024 6 10 0.00 0.00
1:53 am 01:53 Cloudy with Mist and Fog 21 -6.1 19 -7.2 92 92 E 7 11 30.15 1021 5 8 0.00 0.00
2:53 am 02:53 Cloudy with Mist and Fog 21 -6.1 19 -7.2 92 92 E 6 9 30.11 1020 4 6 0.00 0.00
3:21 am 03:21 Cloudy with Mist and Fog 20 -6.7 19 -7.2 96 96 NNE 7 11 30.18 1022 2 3 0.00 0.00
3:45 am 03:45 Mostly Cloudy with Mist and Fog 20 -6.7 19 -7.2 96 96 NNE 7 11 30.18 1022 1 1 0.00 0.00
3:53 am 03:53 Mostly Cloudy with Mist and Fog 20 -6.7 19 -7.2 96 96 NE 8 13 30.08 1019 1 1 0.00 0.00
4:53 am 04:53 Cloudy with Light Freezing Rain 20 -6.7 19 -7.2 96 96 ENE 8 13 30.06 1018 1 2 0.00 0.03
5:03 am 05:03 Cloudy with Mist and Fog 19 -7 18 -8 93 93 NE 8 13 30.12 1020 1 2 0.00 0.00
5:36 am 05:36 Cloudy with Mist and Fog 20 -6.7 18 -7.8 92 92 ENE 6 9 30.12 1020 3 4 0.00 0.03
5:53 am 05:53 Cloudy with Light Freezing Rain 21 -6.1 19 -7.2 92 92 NE 6 9 30.04 1017 2 3 0.00 0.03
6:07 am 06:07 Cloudy with Light Snow 21 -6.1 19 -7.2 92 92 NE 7 11 30.09 1019 2 3 0.00 0.03
6:18 am 06:18 Cloudy with Light Snow 21 -6.1 19 -7.2 92 92 NE 5 7 30.12 1020 2 3 0.00 0.03
6:44 am 06:44 Cloudy with Light Snow 21 -6 18 -8 86 86 NE 7 11 30.09 1019 1 2 0.00 0.00
6:53 am 06:53 Cloudy with Light Snow 21 -6.1 18 -7.8 88 88 NE 8 13 30.00 1016 2 3 0.01 0.25
7:18 am 07:18 Cloudy with Mist and Fog 20 -6.7 18 -7.8 92 92 NNE 7 11 30.09 1019 4 6 0.00 0.03
7:35 am 07:35 Cloudy 20 -6.7 18 -7.8 92 92 N 6 9 30.09 1019 9 14 0.00 0.03
7:48 am 07:48 Cloudy 19 -7 18 -8 93 93 NNE 6 9 30.09 1019 7 11 0.00 0.00
7:53 am 07:53 Cloudy with Mist and Fog 20 -6.7 18 -7.8 92 92 NNE 6 9 30.01 1016 6 10 0.00 0.03
8:04 am 08:04 Cloudy with Light Snow 19 -7 18 -8 93 93 NNE 6 9 30.09 1019 2 3 0.00 0.00
8:11 am 08:11 Cloudy with Light Snow 20 -6.7 18 -7.8 92 92 NNE 6 9 30.09 1019 1 1 0.00 0.03
8:33 am 08:33 Cloudy with Light Snow 20 -6.7 18 -7.8 92 92 NE 5 7 30.09 1019 1 1 0.01 0.25
8:43 am 08:43 Cloudy with Light Snow 20 -6.7 18 -7.8 92 92 ENE 6 9 30.06 1018 1 2 0.01 0.25
8:53 am 08:53 Cloudy with Light Snow 20 -6.7 18 -7.8 92 92 NE 7 11 30.00 1016 3 5 0.01 0.25
9:03 am 09:03 Cloudy with Light Snow 20 -6.7 18 -7.8 92 92 ENE 6 9 30.06 1018 2 3 0.00 0.03
9:36 am 09:36 Cloudy with Light Snow 19 -7 18 -8 93 93 N 8 13 30.03 1017 5 8 0.00 0.00
9:53 am 09:53 Cloudy with Light Snow 21 -6.1 18 -7.8 88 88 NE 7 11 29.94 1014 4 6 0.00 0.03
10:13 am 10:13 Cloudy 21 -6.1 18 -7.8 88 88 NE 7 11 29.94 1014 8 13 0.00 0.03
10:53 am 10:53 Cloudy 22 -5.6 18 -7.8 85 85 ENE 5 7 29.90 1012 10 16 0.00 0.03
11:53 am 11:53 Cloudy 23 -5 19 -7.2 85 85 Calm 29.89 1012 10 16 0.00 0.00
12:53 pm 12:53 Cloudy 24 -4.4 19 -7.2 81 81 WSW 3 6 29.87 1011 9 14 0.00 0.00
1:43 pm 13:43 Cloudy 25 -3.9 22 -5.6 88 88 WSW 5 7 29.85 1011 8 13 0.00 0.00
1:53 pm 13:53 Cloudy 26 -3.3 22 -5.6 84 84 WSW 7 11 29.82 1010 8 13 0.00 0.00
2:53 pm 14:53 Cloudy 29 -1.7 25 -3.9 85 85 WSW 9 15 29.80 1009 9 14 0.00 0.03
3:01 pm 15:01 Cloudy 29 -1.7 26 -3.3 89 89 SW 8 13 29.80 1009 9 14 0.00 0.00
3:46 pm 15:46 Cloudy 32 0 27 -3 80 80 WSW 12 19 29.77 1008 10 16 0.00 0.00
3:53 pm 15:53 Cloudy 32 0 28 -2.2 85 85 W 15 24 29.77 1008 10 16 0.00 0.00
4:28 pm 16:28 Partly Cloudy 35 1.7 27 -2.8 72 72 W 15 24 29.77 1008 10 16 0.00 0.00
4:53 pm 16:53 Sunny 36 2.2 26 -3.3 67 67 W 18 30 29.76 1008 10 16 0.00 0.00
5:53 pm 17:53 Sunny 35 1.7 22 -5.6 59 59 WNW 24 39 29.79 1009 10 16 0.00 0.00
6:53 pm 18:53 Clear 32 0 20 -6.7 61 61 W 17 28 29.82 1010 10 16 0.00 0.00
7:53 pm 19:53 Clear 30 -1.1 18 -7.8 61 61 WNW 17 28 29.86 1011 10 16 0.00 0.00
8:53 pm 20:53 Clear 28 -2.2 17 -8.3 63 63 WNW 17 28 29.91 1013 10 16 0.00 0.00
9:53 pm 21:53 Clear 26 -3.3 16 -8.9 66 66 W 13 20 29.93 1014 10 16 0.00 0.00
10:53 pm 22:53 Clear 25 -3.9 15 -9.4 66 66 W 9 15 29.94 1014 10 16 0.00 0.00
11:53 pm 23:53 Clear 22 -5.6 14 -10 71 71 WSW 8 13 29.94 1014 10 16 0.00 0.00

Powered by AerisWeather